Date_Time,Julian_Date,Latitude,Longitude,Instrument_Depth,U,V,Speed,Direction
(yyyy-mm-dd hh:mn:ss UTC),(JD),(+ deg. North),(+ deg. East),(m),(cm/s),(cm/s),(cm/s),(deg True)
1984-05-10 19:30:00 UTC,2445831.312500,29.6650,-93.4789,0086,6.22,5.03,8.0000,51.0000
1984-05-10 20:00:00 UTC,2445831.333333,29.6650,-93.4789,0086,7.37,5.16,9.0000,55.0000
1984-05-10 20:30:00 UTC,2445831.354167,29.6650,-93.4789,0086,7.87,4.36,9.0000,61.0000
1984-05-10 21:00:00 UTC,2445831.375000,29.6650,-93.4789,0086,8.28,3.52,9.0000,67.0000
1984-05-10 21:30:00 UTC,2445831.395833,29.6650,-93.4789,0086,8.46,3.08,9.0000,70.0000
1984-05-10 22:00:00 UTC,2445831.416667,29.6650,-93.4789,0086,8.28,3.52,9.0000,67.0000
1984-05-10 22:30:00 UTC,2445831.437500,29.6650,-93.4789,0086,8.02,4.09,9.0000,63.0000
1984-05-10 23:00:00 UTC,2445831.458333,29.6650,-93.4789,0086,8.91,4.54,10.0000,63.0000
1984-05-10 23:30:00 UTC,2445831.479167,29.6650,-93.4789,0086,8.99,4.38,10.0000,64.0000
1984-05-11 00:00:00 UTC,2445831.500000,29.6650,-93.4789,0086,7.87,4.36,9.0000,61.0000
1984-05-11 00:30:00 UTC,2445831.520833,29.6650,-93.4789,0086,7.46,5.03,9.0000,56.0000
1984-05-11 01:00:00 UTC,2445831.541667,29.6650,-93.4789,0086,6.47,4.70,8.0000,54.0000
1984-05-11 01:30:00 UTC,2445831.562500,29.6650,-93.4789,0086,5.66,4.11,7.0000,54.0000
1984-05-11 02:00:00 UTC,2445831.583333,29.6650,-93.4789,0086,4.10,2.87,5.0000,55.0000
1984-05-11 02:30:00 UTC,2445831.604167,29.6650,-93.4789,0086,3.28,2.29,4.0000,55.0000
1984-05-11 03:00:00 UTC,2445831.625000,29.6650,-93.4789,0086,2.57,1.55,3.0000,59.0000
1984-05-11 03:30:00 UTC,2445831.645833,29.6650,-93.4789,0086,2.90,0.78,3.0000,75.0000
1984-05-11 04:00:00 UTC,2445831.666667,29.6650,-93.4789,0086,2.98,-0.31,3.0000,96.0000
1984-05-11 04:30:00 UTC,2445831.687500,29.6650,-93.4789,0086,3.78,-1.30,4.0000,109.0000
1984-05-11 05:00:00 UTC,2445831.708333,29.6650,-93.4789,0086,4.33,-2.50,5.0000,120.0000
1984-05-11 05:30:00 UTC,2445831.729167,29.6650,-93.4789,0086,4.32,-4.17,6.0000,134.0000
1984-05-11 06:00:00 UTC,2445831.750000,29.6650,-93.4789,0086,3.29,-6.18,7.0000,152.0000
1984-05-11 06:30:00 UTC,2445831.770833,29.6650,-93.4789,0086,1.87,-8.80,9.0000,168.0000
1984-05-11 07:00:00 UTC,2445831.791667,29.6650,-93.4789,0086,0.96,-10.96,11.0000,175.0000
1984-05-11 07:30:00 UTC,2445831.812500,29.6650,-93.4789,0086,1.15,-10.94,11.0000,174.0000
1984-05-11 08:00:00 UTC,2445831.833333,29.6650,-93.4789,0086,1.05,-9.95,10.0000,174.0000
1984-05-11 08:30:00 UTC,2445831.854167,29.6650,-93.4789,0086,-0.17,-10.00,10.0000,181.0000
1984-05-11 09:00:00 UTC,2445831.875000,29.6650,-93.4789,0086,-1.53,-10.89,11.0000,188.0000
1984-05-11 09:30:00 UTC,2445831.895833,29.6650,-93.4789,0086,-1.91,-10.83,11.0000,190.0000
1984-05-11 10:00:00 UTC,2445831.916667,29.6650,-93.4789,0086,-2.10,-10.80,11.0000,191.0000
1984-05-11 10:30:00 UTC,2445831.937500,29.6650,-93.4789,0086,-2.42,-9.70,10.0000,194.0000
1984-05-11 11:00:00 UTC,2445831.958333,29.6650,-93.4789,0086,-2.21,-7.69,8.0000,196.0000
1984-05-11 11:30:00 UTC,2445831.979167,29.6650,-93.4789,0086,-1.63,-4.73,5.0000,199.0000
1984-05-11 12:00:00 UTC,2445832.000000,29.6650,-93.4789,0086,-1.68,-2.49,3.0000,214.0000
1984-05-11 12:30:00 UTC,2445832.020833,29.6650,-93.4789,0086,-3.00,0.10,3.0000,272.0000
1984-05-11 13:00:00 UTC,2445832.041667,29.6650,-93.4789,0086,-3.78,4.66,6.0000,321.0000
1984-05-11 13:30:00 UTC,2445832.062500,29.6650,-93.4789,0086,-4.38,8.99,10.0000,334.0000
1984-05-11 14:00:00 UTC,2445832.083333,29.6650,-93.4789,0086,-3.40,10.46,11.0000,342.0000
1984-05-11 14:30:00 UTC,2445832.104167,29.6650,-93.4789,0086,-1.91,10.83,11.0000,350.0000
1984-05-11 15:00:00 UTC,2445832.125000,29.6650,-93.4789,0086,-2.08,11.82,12.0000,350.0000
1984-05-11 15:30:00 UTC,2445832.145833,29.6650,-93.4789,0086,-2.90,11.64,12.0000,346.0000
1984-05-11 16:00:00 UTC,2445832.166667,29.6650,-93.4789,0086,-3.71,11.41,12.0000,342.0000
1984-05-11 16:30:00 UTC,2445832.187500,29.6650,-93.4789,0086,-4.12,10.20,11.0000,338.0000
1984-05-11 17:00:00 UTC,2445832.208333,29.6650,-93.4789,0086,-4.38,8.99,10.0000,334.0000
1984-05-11 17:30:00 UTC,2445832.229167,29.6650,-93.4789,0086,-3.88,7.00,8.0000,331.0000
1984-05-11 18:00:00 UTC,2445832.250000,29.6650,-93.4789,0086,-3.18,5.09,6.0000,328.0000
1984-05-11 18:30:00 UTC,2445832.270833,29.6650,-93.4789,0086,-1.88,3.53,4.0000,332.0000
1984-05-11 19:00:00 UTC,2445832.291667,29.6650,-93.4789,0086,-1.03,2.82,3.0000,340.0000
1984-05-11 19:30:00 UTC,2445832.312500,29.6650,-93.4789,0086,-0.75,1.85,2.0000,338.0000
1984-05-11 20:00:00 UTC,2445832.333333,29.6650,-93.4789,0086,-0.16,0.99,1.0000,351.0000
1984-05-11 20:30:00 UTC,2445832.354167,29.6650,-93.4789,0086,0.75,1.85,2.0000,22.0000
1984-05-11 21:00:00 UTC,2445832.375000,29.6650,-93.4789,0086,1.72,2.46,3.0000,35.0000
1984-05-11 21:30:00 UTC,2445832.395833,29.6650,-93.4789,0086,3.89,3.15,5.0000,51.0000
1984-05-11 22:00:00 UTC,2445832.416667,29.6650,-93.4789,0086,6.58,2.39,7.0000,70.0000
1984-05-11 22:30:00 UTC,2445832.437500,29.6650,-93.4789,0086,8.98,0.63,9.0000,86.0000
1984-05-11 23:00:00 UTC,2445832.458333,29.6650,-93.4789,0086,9.93,-1.22,10.0000,97.0000
1984-05-11 23:30:00 UTC,2445832.479167,29.6650,-93.4789,0086,8.93,-1.10,9.0000,97.0000
1984-05-12 00:00:00 UTC,2445832.500000,29.6650,-93.4789,0086,8.99,-0.47,9.0000,93.0000
1984-05-12 00:30:00 UTC,2445832.520833,29.6650,-93.4789,0086,8.97,-0.78,9.0000,95.0000
1984-05-12 01:00:00 UTC,2445832.541667,29.6650,-93.4789,0086,8.73,-2.18,9.0000,104.0000
1984-05-12 01:30:00 UTC,2445832.562500,29.6650,-93.4789,0086,7.47,-2.87,8.0000,111.0000
1984-05-12 02:00:00 UTC,2445832.583333,29.6650,-93.4789,0086,5.44,-2.54,6.0000,115.0000
1984-05-12 02:30:00 UTC,2445832.604167,29.6650,-93.4789,0086,2.65,-1.41,3.0000,118.0000
1984-05-12 03:00:00 UTC,2445832.625000,29.6650,-93.4789,0086,2.23,-2.01,3.0000,132.0000
1984-05-12 03:30:00 UTC,2445832.645833,29.6650,-93.4789,0086,2.12,-3.39,4.0000,148.0000
1984-05-12 04:00:00 UTC,2445832.666667,29.6650,-93.4789,0086,1.63,-4.73,5.0000,161.0000
1984-05-12 04:30:00 UTC,2445832.687500,29.6650,-93.4789,0086,-0.12,-7.00,7.0000,181.0000
1984-05-12 05:00:00 UTC,2445832.708333,29.6650,-93.4789,0086,-2.42,-9.70,10.0000,194.0000
1984-05-12 05:30:00 UTC,2445832.729167,29.6650,-93.4789,0086,-4.33,-13.31,14.0000,198.0000
1984-05-12 06:00:00 UTC,2445832.750000,29.6650,-93.4789,0086,-5.13,-14.10,15.0000,200.0000
1984-05-12 06:30:00 UTC,2445832.770833,29.6650,-93.4789,0086,-5.24,-12.98,14.0000,202.0000
1984-05-12 07:00:00 UTC,2445832.791667,29.6650,-93.4789,0086,-4.45,-12.22,13.0000,200.0000
1984-05-12 07:30:00 UTC,2445832.812500,29.6650,-93.4789,0086,-3.51,-11.48,12.0000,197.0000
1984-05-12 08:00:00 UTC,2445832.833333,29.6650,-93.4789,0086,-3.03,-10.57,11.0000,196.0000
1984-05-12 08:30:00 UTC,2445832.854167,29.6650,-93.4789,0086,-3.37,-8.34,9.0000,202.0000
1984-05-12 09:00:00 UTC,2445832.875000,29.6650,-93.4789,0086,-1.94,-3.50,4.0000,209.0000
1984-05-12 09:30:00 UTC,2445832.895833,29.6650,-93.4789,0086,0.00,0.00,0.0000,56.0000
1984-05-12 10:00:00 UTC,2445832.916667,29.6650,-93.4789,0086,2.18,3.35,4.0000,33.0000
1984-05-12 10:30:00 UTC,2445832.937500,29.6650,-93.4789,0086,3.27,5.03,6.0000,33.0000
1984-05-12 11:00:00 UTC,2445832.958333,29.6650,-93.4789,0086,3.44,4.91,6.0000,35.0000
1984-05-12 11:30:00 UTC,2445832.979167,29.6650,-93.4789,0086,3.50,6.06,7.0000,30.0000
1984-05-12 12:00:00 UTC,2445833.000000,29.6650,-93.4789,0086,4.23,7.95,9.0000,28.0000
1984-05-12 12:30:00 UTC,2445833.020833,29.6650,-93.4789,0086,4.99,9.80,11.0000,27.0000
1984-05-12 13:00:00 UTC,2445833.041667,29.6650,-93.4789,0086,3.94,10.27,11.0000,21.0000
1984-05-12 13:30:00 UTC,2445833.062500,29.6650,-93.4789,0086,2.29,10.76,11.0000,12.0000
1984-05-12 14:00:00 UTC,2445833.083333,29.6650,-93.4789,0086,2.18,8.73,9.0000,14.0000
1984-05-12 14:30:00 UTC,2445833.104167,29.6650,-93.4789,0086,3.00,7.42,8.0000,22.0000
1984-05-12 15:00:00 UTC,2445833.125000,29.6650,-93.4789,0086,2.62,6.49,7.0000,22.0000
1984-05-12 15:30:00 UTC,2445833.145833,29.6650,-93.4789,0086,0.94,5.93,6.0000,9.0000
1984-05-12 16:00:00 UTC,2445833.166667,29.6650,-93.4789,0086,-0.49,6.98,7.0000,356.0000
1984-05-12 16:30:00 UTC,2445833.187500,29.6650,-93.4789,0086,-1.11,7.92,8.0000,352.0000
1984-05-12 17:00:00 UTC,2445833.208333,29.6650,-93.4789,0086,-0.73,6.96,7.0000,354.0000
1984-05-12 17:30:00 UTC,2445833.229167,29.6650,-93.4789,0086,0.31,5.99,6.0000,3.0000
1984-05-12 18:00:00 UTC,2445833.250000,29.6650,-93.4789,0086,1.55,5.80,6.0000,15.0000
1984-05-12 18:30:00 UTC,2445833.270833,29.6650,-93.4789,0086,2.72,5.35,6.0000,27.0000
1984-05-12 19:00:00 UTC,2445833.291667,29.6650,-93.4789,0086,3.94,4.53,6.0000,41.0000
1984-05-12 19:30:00 UTC,2445833.312500,29.6650,-93.4789,0086,6.06,3.50,7.0000,60.0000
1984-05-12 20:00:00 UTC,2445833.333333,29.6650,-93.4789,0086,6.87,1.34,7.0000,79.0000
1984-05-12 20:30:00 UTC,2445833.354167,29.6650,-93.4789,0086,8.00,-0.28,8.0000,92.0000
1984-05-12 21:00:00 UTC,2445833.375000,29.6650,-93.4789,0086,7.88,-1.39,8.0000,100.0000
1984-05-12 21:30:00 UTC,2445833.395833,29.6650,-93.4789,0086,8.69,-2.33,9.0000,105.0000
1984-05-12 22:00:00 UTC,2445833.416667,29.6650,-93.4789,0086,8.56,-2.78,9.0000,108.0000
1984-05-12 22:30:00 UTC,2445833.437500,29.6650,-93.4789,0086,8.28,-3.52,9.0000,113.0000
1984-05-12 23:00:00 UTC,2445833.458333,29.6650,-93.4789,0086,8.02,-4.09,9.0000,117.0000
1984-05-12 23:30:00 UTC,2445833.479167,29.6650,-93.4789,0086,6.34,-2.96,7.0000,115.0000
1984-05-13 00:00:00 UTC,2445833.500000,29.6650,-93.4789,0086,6.66,-2.16,7.0000,108.0000
1984-05-13 00:30:00 UTC,2445833.520833,29.6650,-93.4789,0086,5.89,-1.14,6.0000,101.0000
1984-05-13 01:00:00 UTC,2445833.541667,29.6650,-93.4789,0086,4.98,-0.44,5.0000,95.0000
1984-05-13 01:30:00 UTC,2445833.562500,29.6650,-93.4789,0086,3.98,-0.35,4.0000,95.0000
1984-05-13 02:00:00 UTC,2445833.583333,29.6650,-93.4789,0086,1.94,-0.48,2.0000,104.0000
1984-05-13 02:30:00 UTC,2445833.604167,29.6650,-93.4789,0086,0.85,-0.53,1.0000,122.0000
1984-05-13 03:00:00 UTC,2445833.625000,29.6650,-93.4789,0086,0.64,-0.77,1.0000,140.0000
1984-05-13 03:30:00 UTC,2445833.645833,29.6650,-93.4789,0086,0.41,-0.91,1.0000,156.0000
1984-05-13 04:00:00 UTC,2445833.666667,29.6650,-93.4789,0086,0.35,-1.97,2.0000,170.0000
1984-05-13 04:30:00 UTC,2445833.687500,29.6650,-93.4789,0086,0.14,-4.00,4.0000,178.0000
1984-05-13 05:00:00 UTC,2445833.708333,29.6650,-93.4789,0086,-0.21,-6.00,6.0000,182.0000
1984-05-13 05:30:00 UTC,2445833.729167,29.6650,-93.4789,0086,-1.25,-8.91,9.0000,188.0000
1984-05-13 06:00:00 UTC,2445833.750000,29.6650,-93.4789,0086,-2.33,-8.69,9.0000,195.0000
1984-05-13 06:30:00 UTC,2445833.770833,29.6650,-93.4789,0086,-2.28,-6.62,7.0000,199.0000
1984-05-13 07:00:00 UTC,2445833.791667,29.6650,-93.4789,0086,-1.10,-3.85,4.0000,196.0000
1984-05-13 07:30:00 UTC,2445833.812500,29.6650,-93.4789,0086,-0.07,-2.00,2.0000,182.0000
1984-05-13 08:00:00 UTC,2445833.833333,29.6650,-93.4789,0086,0.21,-0.98,1.0000,168.0000
1984-05-13 08:30:00 UTC,2445833.854167,29.6650,-93.4789,0086,0.79,-0.62,1.0000,128.0000
1984-05-13 09:00:00 UTC,2445833.875000,29.6650,-93.4789,0086,2.74,-1.22,3.0000,114.0000
1984-05-13 09:30:00 UTC,2445833.895833,29.6650,-93.4789,0086,4.67,-1.79,5.0000,111.0000
1984-05-13 10:00:00 UTC,2445833.916667,29.6650,-93.4789,0086,5.60,-2.15,6.0000,111.0000
1984-05-13 10:30:00 UTC,2445833.937500,29.6650,-93.4789,0086,6.44,-2.74,7.0000,113.0000
1984-05-13 11:00:00 UTC,2445833.958333,29.6650,-93.4789,0086,6.49,-2.62,7.0000,112.0000
1984-05-13 11:30:00 UTC,2445833.979167,29.6650,-93.4789,0086,6.76,-1.81,7.0000,105.0000
1984-05-13 12:00:00 UTC,2445834.000000,29.6650,-93.4789,0086,7.96,-0.84,8.0000,96.0000
1984-05-13 12:30:00 UTC,2445834.020833,29.6650,-93.4789,0086,7.99,0.42,8.0000,87.0000
1984-05-13 13:00:00 UTC,2445834.041667,29.6650,-93.4789,0086,7.90,1.25,8.0000,81.0000
1984-05-13 13:30:00 UTC,2445834.062500,29.6650,-93.4789,0086,6.66,2.16,7.0000,72.0000
1984-05-13 14:00:00 UTC,2445834.083333,29.6650,-93.4789,0086,6.18,3.29,7.0000,62.0000
1984-05-13 14:30:00 UTC,2445834.104167,29.6650,-93.4789,0086,4.91,3.44,6.0000,55.0000
1984-05-13 15:00:00 UTC,2445834.125000,29.6650,-93.4789,0086,4.79,3.61,6.0000,53.0000
1984-05-13 15:30:00 UTC,2445834.145833,29.6650,-93.4789,0086,4.79,3.61,6.0000,53.0000
1984-05-13 16:00:00 UTC,2445834.166667,29.6650,-93.4789,0086,3.83,3.21,5.0000,50.0000
1984-05-13 16:30:00 UTC,2445834.187500,29.6650,-93.4789,0086,2.57,3.06,4.0000,40.0000
1984-05-13 17:00:00 UTC,2445834.208333,29.6650,-93.4789,0086,2.41,3.19,4.0000,37.0000
1984-05-13 17:30:00 UTC,2445834.229167,29.6650,-93.4789,0086,2.97,2.68,4.0000,48.0000
1984-05-13 18:00:00 UTC,2445834.250000,29.6650,-93.4789,0086,2.91,0.73,3.0000,76.0000
1984-05-13 18:30:00 UTC,2445834.270833,29.6650,-93.4789,0086,1.97,-0.35,2.0000,100.0000
1984-05-13 19:00:00 UTC,2445834.291667,29.6650,-93.4789,0086,1.90,-0.62,2.0000,108.0000
1984-05-13 19:30:00 UTC,2445834.312500,29.6650,-93.4789,0086,0.86,-0.52,1.0000,121.0000
1984-05-13 20:00:00 UTC,2445834.333333,29.6650,-93.4789,0086,0.74,-0.67,1.0000,132.0000
1984-05-13 20:30:00 UTC,2445834.354167,29.6650,-93.4789,0086,2.36,-1.85,3.0000,128.0000
1984-05-13 21:00:00 UTC,2445834.375000,29.6650,-93.4789,0086,3.46,-2.00,4.0000,120.0000
1984-05-13 21:30:00 UTC,2445834.395833,29.6650,-93.4789,0086,2.80,-1.08,3.0000,111.0000
1984-05-13 22:00:00 UTC,2445834.416667,29.6650,-93.4789,0086,1.77,-0.94,2.0000,118.0000
1984-05-13 22:30:00 UTC,2445834.437500,29.6650,-93.4789,0086,1.44,-1.39,2.0000,134.0000
1984-05-13 23:00:00 UTC,2445834.458333,29.6650,-93.4789,0086,1.63,-2.52,3.0000,147.0000
1984-05-13 23:30:00 UTC,2445834.479167,29.6650,-93.4789,0086,0.83,-2.88,3.0000,164.0000
1984-05-14 00:00:00 UTC,2445834.500000,29.6650,-93.4789,0086,0.37,-2.98,3.0000,173.0000
1984-05-14 00:30:00 UTC,2445834.520833,29.6650,-93.4789,0086,0.52,-2.95,3.0000,170.0000
1984-05-14 01:00:00 UTC,2445834.541667,29.6650,-93.4789,0086,0.81,-1.83,2.0000,156.0000
1984-05-14 01:30:00 UTC,2445834.562500,29.6650,-93.4789,0086,1.26,-1.55,2.0000,141.0000
1984-05-14 02:00:00 UTC,2445834.583333,29.6650,-93.4789,0086,1.34,-1.49,2.0000,138.0000
1984-05-14 02:30:00 UTC,2445834.604167,29.6650,-93.4789,0086,0.41,-0.91,1.0000,156.0000
1984-05-14 03:00:00 UTC,2445834.625000,29.6650,-93.4789,0086,0.07,-1.00,1.0000,176.0000
1984-05-14 03:30:00 UTC,2445834.645833,29.6650,-93.4789,0086,-0.10,-0.99,1.0000,186.0000
1984-05-14 04:00:00 UTC,2445834.666667,29.6650,-93.4789,0086,-0.16,-0.99,1.0000,189.0000
1984-05-14 04:30:00 UTC,2445834.687500,29.6650,-93.4789,0086,-0.68,-1.88,2.0000,200.0000
1984-05-14 05:00:00 UTC,2445834.708333,29.6650,-93.4789,0086,-1.50,-2.60,3.0000,210.0000
1984-05-14 05:30:00 UTC,2445834.729167,29.6650,-93.4789,0086,-2.06,-3.43,4.0000,211.0000
1984-05-14 06:00:00 UTC,2445834.750000,29.6650,-93.4789,0086,-2.06,-3.43,4.0000,211.0000
1984-05-14 06:30:00 UTC,2445834.770833,29.6650,-93.4789,0086,-2.00,-3.46,4.0000,210.0000
1984-05-14 07:00:00 UTC,2445834.791667,29.6650,-93.4789,0086,-1.55,-2.57,3.0000,211.0000
1984-05-14 07:30:00 UTC,2445834.812500,29.6650,-93.4789,0086,-2.18,-3.35,4.0000,213.0000
1984-05-14 08:00:00 UTC,2445834.833333,29.6650,-93.4789,0086,-1.94,-3.50,4.0000,209.0000
1984-05-14 08:30:00 UTC,2445834.854167,29.6650,-93.4789,0086,-1.69,-3.63,4.0000,205.0000
1984-05-14 09:00:00 UTC,2445834.875000,29.6650,-93.4789,0086,-1.69,-3.63,4.0000,205.0000
1984-05-14 09:30:00 UTC,2445834.895833,29.6650,-93.4789,0086,-0.78,-1.84,2.0000,203.0000
1984-05-14 10:00:00 UTC,2445834.916667,29.6650,-93.4789,0086,0.64,-0.77,1.0000,140.0000
1984-05-14 10:30:00 UTC,2445834.937500,29.6650,-93.4789,0086,2.00,0.00,2.0000,90.0000
1984-05-14 11:00:00 UTC,2445834.958333,29.6650,-93.4789,0086,2.99,0.26,3.0000,85.0000
1984-05-14 11:30:00 UTC,2445834.979167,29.6650,-93.4789,0086,2.62,1.45,3.0000,61.0000
1984-05-14 12:00:00 UTC,2445835.000000,29.6650,-93.4789,0086,2.06,3.43,4.0000,31.0000
1984-05-14 12:30:00 UTC,2445835.020833,29.6650,-93.4789,0086,1.43,3.73,4.0000,21.0000
1984-05-14 13:00:00 UTC,2445835.041667,29.6650,-93.4789,0086,1.95,4.60,5.0000,23.0000
1984-05-14 13:30:00 UTC,2445835.062500,29.6650,-93.4789,0086,2.25,5.56,6.0000,22.0000
1984-05-14 14:00:00 UTC,2445835.083333,29.6650,-93.4789,0086,1.85,5.71,6.0000,18.0000
1984-05-14 14:30:00 UTC,2445835.104167,29.6650,-93.4789,0086,1.93,6.73,7.0000,16.0000
1984-05-14 15:00:00 UTC,2445835.125000,29.6650,-93.4789,0086,2.21,7.69,8.0000,16.0000
1984-05-14 15:30:00 UTC,2445835.145833,29.6650,-93.4789,0086,2.16,6.66,7.0000,18.0000
1984-05-14 16:00:00 UTC,2445835.166667,29.6650,-93.4789,0086,2.44,5.48,6.0000,24.0000
1984-05-14 16:30:00 UTC,2445835.187500,29.6650,-93.4789,0086,2.65,4.24,5.0000,32.0000
1984-05-14 17:00:00 UTC,2445835.208333,29.6650,-93.4789,0086,2.41,3.19,4.0000,37.0000
1984-05-14 17:30:00 UTC,2445835.229167,29.6650,-93.4789,0086,1.97,2.26,3.0000,41.0000
1984-05-14 18:00:00 UTC,2445835.250000,29.6650,-93.4789,0086,2.19,2.05,3.0000,47.0000
1984-05-14 18:30:00 UTC,2445835.270833,29.6650,-93.4789,0086,1.71,1.03,2.0000,59.0000
1984-05-14 19:00:00 UTC,2445835.291667,29.6650,-93.4789,0086,0.87,0.50,1.0000,60.0000
1984-05-14 19:30:00 UTC,2445835.312500,29.6650,-93.4789,0086,0.41,0.91,1.0000,24.0000
1984-05-14 20:00:00 UTC,2445835.333333,29.6650,-93.4789,0086,-0.85,0.53,1.0000,302.0000
1984-05-14 20:30:00 UTC,2445835.354167,29.6650,-93.4789,0086,-0.95,0.31,1.0000,288.0000
1984-05-14 21:00:00 UTC,2445835.375000,29.6650,-93.4789,0086,-0.94,0.34,1.0000,290.0000
1984-05-14 21:30:00 UTC,2445835.395833,29.6650,-93.4789,0086,-0.93,0.36,1.0000,291.0000
1984-05-14 22:00:00 UTC,2445835.416667,29.6650,-93.4789,0086,-0.99,0.12,1.0000,277.0000
1984-05-14 22:30:00 UTC,2445835.437500,29.6650,-93.4789,0086,-2.00,-0.03,2.0000,269.0000
1984-05-14 23:00:00 UTC,2445835.458333,29.6650,-93.4789,0086,-1.96,-0.42,2.0000,258.0000
1984-05-14 23:30:00 UTC,2445835.479167,29.6650,-93.4789,0086,-1.80,-0.88,2.0000,244.0000
1984-05-15 00:00:00 UTC,2445835.500000,29.6650,-93.4789,0086,-1.73,-1.00,2.0000,240.0000
1984-05-15 00:30:00 UTC,2445835.520833,29.6650,-93.4789,0086,-1.81,-0.85,2.0000,245.0000
1984-05-15 01:00:00 UTC,2445835.541667,29.6650,-93.4789,0086,-0.96,-0.29,1.0000,253.0000
1984-05-15 01:30:00 UTC,2445835.562500,29.6650,-93.4789,0086,-0.97,-0.26,1.0000,255.0000
1984-05-15 02:00:00 UTC,2445835.583333,29.6650,-93.4789,0086,-0.99,-0.14,1.0000,262.0000
1984-05-15 02:30:00 UTC,2445835.604167,29.6650,-93.4789,0086,-0.81,0.59,1.0000,306.0000
1984-05-15 03:00:00 UTC,2445835.625000,29.6650,-93.4789,0086,-1.29,1.53,2.0000,320.0000
1984-05-15 03:30:00 UTC,2445835.645833,29.6650,-93.4789,0086,-0.72,1.87,2.0000,339.0000
1984-05-15 04:00:00 UTC,2445835.666667,29.6650,-93.4789,0086,0.83,2.88,3.0000,16.0000
1984-05-15 04:30:00 UTC,2445835.687500,29.6650,-93.4789,0086,1.69,3.63,4.0000,25.0000
1984-05-15 05:00:00 UTC,2445835.708333,29.6650,-93.4789,0086,0.90,3.90,4.0000,13.0000
1984-05-15 05:30:00 UTC,2445835.729167,29.6650,-93.4789,0086,-0.42,3.98,4.0000,354.0000
1984-05-15 06:00:00 UTC,2445835.750000,29.6650,-93.4789,0086,-0.87,4.92,5.0000,350.0000
1984-05-15 06:30:00 UTC,2445835.770833,29.6650,-93.4789,0086,-0.35,3.98,4.0000,355.0000
1984-05-15 07:00:00 UTC,2445835.791667,29.6650,-93.4789,0086,-0.14,4.00,4.0000,358.0000
1984-05-15 07:30:00 UTC,2445835.812500,29.6650,-93.4789,0086,-0.10,3.00,3.0000,358.0000
1984-05-15 08:00:00 UTC,2445835.833333,29.6650,-93.4789,0086,-0.03,2.00,2.0000,359.0000
1984-05-15 08:30:00 UTC,2445835.854167,29.6650,-93.4789,0086,0.17,1.99,2.0000,5.0000
1984-05-15 09:00:00 UTC,2445835.875000,29.6650,-93.4789,0086,0.17,1.99,2.0000,5.0000
1984-05-15 09:30:00 UTC,2445835.895833,29.6650,-93.4789,0086,0.29,0.96,1.0000,17.0000
1984-05-15 10:00:00 UTC,2445835.916667,29.6650,-93.4789,0086,1.12,1.66,2.0000,34.0000
1984-05-15 10:30:00 UTC,2445835.937500,29.6650,-93.4789,0086,2.08,2.16,3.0000,44.0000
1984-05-15 11:00:00 UTC,2445835.958333,29.6650,-93.4789,0086,3.19,2.41,4.0000,53.0000
1984-05-15 11:30:00 UTC,2445835.979167,29.6650,-93.4789,0086,3.24,2.35,4.0000,54.0000
1984-05-15 12:00:00 UTC,2445836.000000,29.6650,-93.4789,0086,3.24,2.35,4.0000,54.0000
1984-05-15 12:30:00 UTC,2445836.020833,29.6650,-93.4789,0086,4.33,2.50,5.0000,60.0000
1984-05-15 13:00:00 UTC,2445836.041667,29.6650,-93.4789,0086,5.30,2.82,6.0000,62.0000
1984-05-15 13:30:00 UTC,2445836.062500,29.6650,-93.4789,0086,5.14,3.09,6.0000,59.0000
1984-05-15 14:00:00 UTC,2445836.083333,29.6650,-93.4789,0086,4.91,3.44,6.0000,55.0000
1984-05-15 14:30:00 UTC,2445836.104167,29.6650,-93.4789,0086,4.05,2.94,5.0000,54.0000
1984-05-15 15:00:00 UTC,2445836.125000,29.6650,-93.4789,0086,3.89,3.15,5.0000,51.0000
1984-05-15 15:30:00 UTC,2445836.145833,29.6650,-93.4789,0086,4.32,4.17,6.0000,46.0000
1984-05-15 16:00:00 UTC,2445836.166667,29.6650,-93.4789,0086,3.54,3.54,5.0000,45.0000
1984-05-15 16:30:00 UTC,2445836.187500,29.6650,-93.4789,0086,3.02,2.62,4.0000,49.0000
1984-05-15 17:00:00 UTC,2445836.208333,29.6650,-93.4789,0086,2.93,2.73,4.0000,47.0000
1984-05-15 17:30:00 UTC,2445836.229167,29.6650,-93.4789,0086,2.78,2.88,4.0000,44.0000
1984-05-15 18:00:00 UTC,2445836.250000,29.6650,-93.4789,0086,2.05,2.19,3.0000,43.0000
1984-05-15 18:30:00 UTC,2445836.270833,29.6650,-93.4789,0086,1.34,1.49,2.0000,42.0000
1984-05-15 19:00:00 UTC,2445836.291667,29.6650,-93.4789,0086,1.39,1.44,2.0000,44.0000
1984-05-15 19:30:00 UTC,2445836.312500,29.6650,-93.4789,0086,0.71,0.71,1.0000,45.0000
1984-05-15 20:00:00 UTC,2445836.333333,29.6650,-93.4789,0086,0.69,0.72,1.0000,44.0000
1984-05-15 20:30:00 UTC,2445836.354167,29.6650,-93.4789,0086,0.00,0.00,0.0000,42.0000
1984-05-15 21:00:00 UTC,2445836.375000,29.6650,-93.4789,0086,-0.00,0.00,0.0000,324.0000
1984-05-15 21:30:00 UTC,2445836.395833,29.6650,-93.4789,0086,-0.00,0.00,0.0000,317.0000
1984-05-15 22:00:00 UTC,2445836.416667,29.6650,-93.4789,0086,-0.00,0.00,0.0000,304.0000
1984-05-15 22:30:00 UTC,2445836.437500,29.6650,-93.4789,0086,-0.00,-0.00,0.0000,259.0000
1984-05-15 23:00:00 UTC,2445836.458333,29.6650,-93.4789,0086,-0.96,-0.29,1.0000,253.0000
1984-05-15 23:30:00 UTC,2445836.479167,29.6650,-93.4789,0086,-0.94,-0.34,1.0000,250.0000
1984-05-16 00:00:00 UTC,2445836.500000,29.6650,-93.4789,0086,-0.92,-0.39,1.0000,247.0000
1984-05-16 00:30:00 UTC,2445836.520833,29.6650,-93.4789,0086,-0.92,-0.39,1.0000,247.0000
1984-05-16 01:00:00 UTC,2445836.541667,29.6650,-93.4789,0086,-1.83,-0.81,2.0000,246.0000
1984-05-16 01:30:00 UTC,2445836.562500,29.6650,-93.4789,0086,-0.92,-0.39,1.0000,247.0000
1984-05-16 02:00:00 UTC,2445836.583333,29.6650,-93.4789,0086,-0.94,-0.34,1.0000,250.0000
1984-05-16 02:30:00 UTC,2445836.604167,29.6650,-93.4789,0086,-0.00,-0.00,0.0000,264.0000
1984-05-16 03:00:00 UTC,2445836.625000,29.6650,-93.4789,0086,0.00,0.00,0.0000,9.0000
1984-05-16 03:30:00 UTC,2445836.645833,29.6650,-93.4789,0086,-0.17,0.98,1.0000,350.0000
1984-05-16 04:00:00 UTC,2445836.666667,29.6650,-93.4789,0086,-0.98,0.21,1.0000,282.0000
1984-05-16 04:30:00 UTC,2445836.687500,29.6650,-93.4789,0086,-2.98,0.37,3.0000,277.0000
1984-05-16 05:00:00 UTC,2445836.708333,29.6650,-93.4789,0086,-3.86,1.04,4.0000,285.0000
1984-05-16 05:30:00 UTC,2445836.729167,29.6650,-93.4789,0086,-4.67,1.79,5.0000,291.0000
1984-05-16 06:00:00 UTC,2445836.750000,29.6650,-93.4789,0086,-3.53,1.88,4.0000,298.0000
1984-05-16 06:30:00 UTC,2445836.770833,29.6650,-93.4789,0086,-3.50,1.94,4.0000,299.0000
1984-05-16 07:00:00 UTC,2445836.791667,29.6650,-93.4789,0086,-3.63,1.69,4.0000,295.0000
1984-05-16 07:30:00 UTC,2445836.812500,29.6650,-93.4789,0086,-2.74,1.22,3.0000,294.0000
1984-05-16 08:00:00 UTC,2445836.833333,29.6650,-93.4789,0086,-2.52,1.63,3.0000,303.0000
1984-05-16 08:30:00 UTC,2445836.854167,29.6650,-93.4789,0086,-3.15,2.46,4.0000,308.0000
1984-05-16 09:00:00 UTC,2445836.875000,29.6650,-93.4789,0086,-2.33,1.89,3.0000,309.0000
1984-05-16 09:30:00 UTC,2445836.895833,29.6650,-93.4789,0086,-2.30,1.93,3.0000,310.0000
1984-05-16 10:00:00 UTC,2445836.916667,29.6650,-93.4789,0086,-1.06,1.70,2.0000,328.0000
1984-05-16 10:30:00 UTC,2445836.937500,29.6650,-93.4789,0086,0.85,1.81,2.0000,25.0000
1984-05-16 11:00:00 UTC,2445836.958333,29.6650,-93.4789,0086,2.97,0.42,3.0000,82.0000